This is the latest recevied weather packets stored in our database for station/object LU5DTF-1. If no packets are shown the sender has not sent any weather packets the latest 10 day(s).
| Time | Temp. | Humidity | Pressure | Rain* | Wind** | Luminosity | Snow |
|---|---|---|---|---|---|---|---|
| 1777731598 | 12.22° C | 61% | 1021.5 hPa | 0.25 mm | - | - | - |
| 1777731297 | 12.22° C | 60% | 1021.5 hPa | 0.25 mm | - | - | - |
| 1777730997 | 11.67° C | 63% | 1021.4 hPa | 0.25 mm | - | - | - |
| 1777730697 | 11.11° C | 68% | 1021.6 hPa | 0.25 mm | - | - | - |
| 1777730397 | 11.67° C | 71% | 1021.4 hPa | 0.25 mm | - | - | - |
| 1777730097 | 12.22° C | 66% | 1021.3 hPa | 0 mm | - | - | - |
| 1777729797 | 12.22° C | 67% | 1021.2 hPa | 0 mm | - | - | - |
| 1777729497 | 11.67° C | 70% | 1021.2 hPa | 0 mm | - | - | - |
| 1777729197 | 11.11° C | 74% | 1021.2 hPa | 0 mm | - | - | - |
| 1777728897 | 10.56° C | 75% | 1021.1 hPa | 0 mm | - | - | - |
| 1777728597 | 10.56° C | 77% | 1021.1 hPa | 0.25 mm | - | - | - |
| 1777728297 | 10.56° C | 77% | 1021.2 hPa | 0.25 mm | - | - | - |
| 1777727997 | 10° C | 77% | 1021.1 hPa | 0.25 mm | - | - | - |
| 1777727697 | 10° C | 80% | 1021.3 hPa | 0.25 mm | - | - | - |
| 1777727397 | 10° C | 81% | 1021.2 hPa | 0.25 mm | - | - | - |
| 1777726797 | 9.44° C | 82% | 1020.9 hPa | 0.51 mm | - | - | - |
| 1777725897 | 8.33° C | 84% | 1020.9 hPa | 0.51 mm | - | - | - |
| 1777725597 | 8.33° C | 84% | 1020.9 hPa | 0.51 mm | - | - | - |
| 1777725297 | 8.33° C | 83% | 1020.8 hPa | 0.51 mm | - | - | - |
| 1777724997 | 8.33° C | 83% | 1020.6 hPa | 0.51 mm | - | - | - |
| 1777724697 | 7.78° C | 83% | 1020.6 hPa | 0.76 mm | - | - | - |
| 1777724397 | 7.78° C | 84% | 1020.6 hPa | 0.76 mm | - | - | - |
| 1777724097 | 7.78° C | 85% | 1020.6 hPa | 0.76 mm | - | - | - |
| 1777723797 | 7.78° C | 85% | 1020.6 hPa | 0.76 mm | - | - | - |
| 1777723197 | 7.78° C | 85% | 1020.7 hPa | 0.51 mm | - | - | - |
* Rain latest hour (hover to see other rain measurements)
** Current wind speed in m/s (hover to see current wind gust speed)